Location: *
(2.5500°S, 65.9667°W)
Time: 12:22:26
(UTC+00:00)

Cosmos 2333 Rocket - Pass Details

Date: 26 October 2021
Orbit: 837 x 864 km, 70.8° (Epoch: 29 November)

Event Time Altitude Azimuth Distance (km) Brightness Sun altitude
Rises 22:48:51 0° 216° (SW) 3,387 6.2 -9.4°
Reaches altitude 10° 22:51:36 10° 226° (SW) 2,450 5.6 -10.1°
Maximum altitude 22:56:22 29° 285° (WNW) 1,495 4.2 -11.3°
Drops below altitude 10° 23:01:09 10° 344° (NNW) 2,448 4.6 -12.4°
Sets 23:03:54 0° 355° (N) 3,383 5.2 -13.1°
